Terminal Aerodrome Forecast
Issued by NWS

Home | Current Version | Previous Version | Text Only | Print | Product List | Glossary On
Versions: 1 2 3 4 5 6 7 8 9 10 11 12 13 14 15 16
000
FTUS42 KFFC 012115 AAA
TAFPDK
TAF AMD
KPDK 012115Z 0121/0218 15007KT 6SM -RA BR SCT025 BKN040
      TEMPO 0121/0123 3SM RA BR BKN020
     FM012300 17008KT 5SM -RA SCT008 BKN015
     FM020100 19010KT 3SM RA OVC008
     FM020800 28010KT 3SM -RA BKN008 OVC012
     FM021000 30010KT 5SM -RA SCT008 BKN012
     FM021300 30010G20KT P6SM SCT012 OVC025
     FM021700 30012G25KT P6SM BKN040=

USA.gov is the U.S. government's official web portal to all federal, state and local government web resources and services.